Change the Weather History Date:

Wednesday, October 30, 2013

  Actual Average Record
Temperature  
Mean Temperature 68 °F 59 °F  
Max Temperature 72 °F 72 °F 90 °F (1937)
Min Temperature 64 °F 46 °F 26 °F (1980)
Degree Days  
Heating Degree Days 0 7  
Month to date heating degree days 141 118  
Since 1 July heating degree days 141 127  
Cooling Degree Days 3 1  
Month to date cooling degree days 87 70  
Year to date cooling degree days 2023 1935  
Growing Degree Days 18 (Base 50)    
Moisture  
Dew Point 64 °F    
Average Humidity 87    
Maximum Humidity 100    
Minimum Humidity 73    
Precipitation  
Precipitation 0.10 in 0.12 in 3.97 in (1969)
Month to date precipitation 2.66 4.41  
Year to date precipitation 28.91 39.61  
Snow  
Snow 0.00 in - - ()
Month to date snowfall 0.0  
Since 1 July snowfall 0.0  
Since 1 September snowfall 0.0  
Snow Depth 0.00 in    
Sea Level Pressure  
Sea Level Pressure 29.98 in    
Wind  
Wind Speed 4 mph (SE)    
Max Wind Speed 15 mph    
Max Gust Speed 24 mph    
Visibility 6 miles    
Events Rain    
T = Trace of Precipitation, MM = Missing Value Source: NWS Daily Summary

Daily Weather History Graph

Daily Weather History Graph

Search for Another Location

Airport or City:

Trip Planner

Search our weather history database for the weather conditions in past years. The results will help you decide how hot, cold, wet, or windy it might be!

Date:

Astronomy

Oct. 30, 2013 Rise Set
Actual Time 7:35 AM CDT 6:26 PM CDT
Civil Twilight 7:09 AM CDT 6:52 PM CDT
Nautical Twilight 6:40 AM CDT 7:21 PM CDT
Astronomical Twilight 6:11 AM CDT 7:50 PM CDT
Moon 3:35 AM CDT (10/30) 4:03 PM CDT (10/30)
Length of Visible Light 11h 42m
Length of Day
10h 50m
Waning Crescent, 17% of the Moon is Illuminated
Oct 30
Waning Crescent
Nov 3
New
Nov 9
First Quarter
Nov 17
Full
Nov 25
Last Quarter

Hourly Weather History & Observations

Time (CDT) Temp. Dew Point Humidity Pressure Visibility Wind Dir Wind Speed Gust Speed Precip Events Conditions
12:53 AM 69.1 °F 66.0 °F 90% 30.05 in 9.0 mi Calm Calm - N/A   Clear
1:53 AM 69.1 °F 66.0 °F 90% 30.03 in 8.0 mi Calm Calm - N/A   Clear
2:53 AM 68.0 °F 64.9 °F 90% 30.04 in 7.0 mi Calm Calm - N/A   Clear
3:53 AM 64.0 °F 63.0 °F 96% 30.05 in 4.0 mi Calm Calm - N/A   Clear
4:53 AM 64.0 °F 64.0 °F 100% 30.04 in 4.0 mi Calm Calm - N/A   Clear
5:42 AM 64.9 °F 64.0 °F 97% 30.05 in 4.0 mi Calm Calm - N/A   Mostly Cloudy
5:53 AM 66.0 °F 64.0 °F 93% 30.04 in 6.0 mi Calm Calm - N/A   Mostly Cloudy
6:12 AM 66.0 °F 64.9 °F 96% 30.04 in 6.0 mi ESE 5.8 mph - N/A   Scattered Clouds
6:32 AM 66.9 °F 64.9 °F 93% 30.05 in 6.0 mi Calm Calm - N/A   Mostly Cloudy
6:53 AM 66.9 °F 66.0 °F 97% 30.03 in 6.0 mi Calm Calm - N/A   Mostly Cloudy
7:17 AM 68.0 °F 66.0 °F 93% 30.04 in 7.0 mi Variable 3.5 mph - N/A   Overcast
7:53 AM 68.0 °F 66.0 °F 93% 30.02 in 6.0 mi East 3.5 mph - N/A   Overcast
8:15 AM 68.0 °F 66.0 °F 93% 30.04 in 6.0 mi Calm Calm - 0.00 in   Overcast
8:53 AM 68.0 °F 66.0 °F 93% 30.03 in 4.0 mi ESE 4.6 mph - 0.00 in   Overcast
9:53 AM 68.0 °F 66.9 °F 96% 30.05 in 4.0 mi Calm Calm - 0.00 in   Overcast
10:07 AM 69.1 °F 66.9 °F 93% 30.07 in 4.0 mi Calm Calm - N/A   Overcast
10:35 AM 69.1 °F 66.9 °F 93% 30.05 in 4.0 mi SSE 8.1 mph - 0.00 in Rain Light Rain
10:53 AM 69.1 °F 68.0 °F 96% 30.05 in 5.0 mi South 3.5 mph - 0.00 in Rain Light Rain
11:53 AM 69.1 °F 66.9 °F 93% 30.04 in 6.0 mi Variable 4.6 mph - 0.00 in   Overcast
12:07 PM 69.1 °F 66.9 °F 93% 30.04 in 6.0 mi Variable 6.9 mph 16.1 mph N/A   Overcast
12:38 PM 70.0 °F 66.9 °F 90% 30.05 in 8.0 mi South 6.9 mph - N/A   Mostly Cloudy
12:45 PM 70.0 °F 66.9 °F 90% 30.04 in 9.0 mi Variable 6.9 mph - N/A   Overcast
12:53 PM 71.1 °F 66.9 °F 87% 30.01 in 9.0 mi South 6.9 mph 16.1 mph N/A   Mostly Cloudy
1:53 PM 71.1 °F 62.1 °F 73% 29.96 in 10.0 mi SSE 10.4 mph 18.4 mph N/A   Partly Cloudy
2:53 PM 70.0 °F 60.1 °F 71% 29.94 in 10.0 mi South 10.4 mph 24.2 mph N/A   Mostly Cloudy
3:53 PM 68.0 °F 60.1 °F 76% 29.94 in 10.0 mi South 5.8 mph - 0.00 in Rain Light Rain
4:08 PM 68.0 °F 60.1 °F 76% 29.96 in 10.0 mi SSW 4.6 mph - 0.00 in   Overcast
4:53 PM 66.0 °F 61.0 °F 84% 29.95 in 7.0 mi SE 3.5 mph - 0.00 in Rain Light Rain
5:19 PM 64.9 °F 63.0 °F 93% 29.95 in 8.0 mi ESE 3.5 mph - 0.01 in Rain Light Rain
5:53 PM 64.9 °F 63.0 °F 93% 29.93 in 9.0 mi Calm Calm - 0.01 in   Mostly Cloudy
6:31 PM 64.9 °F 62.1 °F 90% 29.94 in 7.0 mi SSE 6.9 mph - 0.00 in Rain Light Rain
6:38 PM 64.0 °F 63.0 °F 96% 29.94 in 7.0 mi Variable 4.6 mph - 0.00 in Rain Light Rain
6:53 PM 64.9 °F 63.0 °F 93% 29.94 in 10.0 mi South 5.8 mph - 0.00 in   Overcast
7:53 PM 64.9 °F 62.1 °F 90% 29.93 in 9.0 mi Variable 3.5 mph - 0.00 in Rain Light Rain
8:37 PM 64.9 °F 63.0 °F 93% 29.93 in 8.0 mi ESE 4.6 mph - 0.00 in Rain Light Rain
8:53 PM 64.9 °F 63.0 °F 93% 29.92 in 8.0 mi ESE 5.8 mph - 0.00 in Rain Light Rain
9:41 PM 64.9 °F 63.0 °F 93% 29.92 in 5.0 mi SE 5.8 mph - 0.02 in Rain Light Rain
9:53 PM 64.9 °F 63.0 °F 93% 29.92 in 8.0 mi SSE 8.1 mph - 0.02 in Rain Light Rain
10:07 PM 64.0 °F 63.0 °F 96% 29.91 in 2.0 mi ESE 5.8 mph - 0.06 in Rain Heavy Rain
10:18 PM 64.0 °F 63.0 °F 96% 29.91 in 5.0 mi Calm Calm - 0.06 in Rain Light Rain
10:25 PM 64.0 °F 64.0 °F 100% 29.91 in 5.0 mi NW 3.5 mph - 0.06 in Rain Light Rain
10:38 PM 64.0 °F 63.0 °F 96% 29.91 in 5.0 mi Calm Calm - 0.06 in Rain Light Rain
10:53 PM 64.0 °F 63.0 °F 96% 29.90 in 4.0 mi ENE 3.5 mph - 0.07 in Rain Light Rain
11:16 PM 64.0 °F 63.0 °F 96% 29.89 in 4.0 mi ENE 4.6 mph - 0.00 in Rain Light Rain
11:46 PM 64.0 °F 63.0 °F 96% 29.87 in 4.0 mi East 4.6 mph - 0.00 in Rain Light Rain
11:53 PM 64.0 °F 63.0 °F 96% 29.86 in 4.0 mi East 4.6 mph - 0.00 in Rain Light Rain